Location: Holkham
(52.9500°N, 0.8167°E)
Time: 19:13:35
(UTC+00:00)

DELTA 2 DEB (DPAF) - Pass Details

Date: 19 May 2025
Orbit: 538 x 548 km, 98.4° (Epoch: 22 June)

Event Time Altitude Azimuth Distance (km) Brightness Sun altitude
Rises 22:39:31 0° 11° (N) 2,735 8.5 -15.3°
Maximum altitude 22:45:32 50° 291° (WNW) 704 4.6 -15.6°
Enters shadow 22:48:39 14° 219° (SW) 1,547 5.8 -15.7°
